STARLINK-33723, 63593

Orbit data source: Space-Track

STARLINK-33723, 63593 is a payload satellite owned by SpaceX/Seattle (US) in LEO that was launched on Mon, 14 Apr 2025 UTC via an FALCON 9 launch vehicle from the Air Force Eastern Test Range (AFETR). Payload-class satellites include a variety of spacecraft equipped with specific instruments for various scientific and technological missions. These include communications satellites like Starlink; space stations such as the ISS; scientific satellites like the Hubble; Earth observation satellites from companies like Planet Labs, Umbra, and HawkEye 360; GPS; miniature CubeSats for education and research; and military/defense satellites.

Loading next visibility...
Identifier
63593, 2025-076AA
Orbit
LEO
Last TLE update
7 hours ago
Origin
Manufacturer
SpaceX/Seattle
Mission
Operational Commercial Communications
Bus & Motor
STARLINK V2MO, Unknown motor
Mass
575 kg wet, ~530 kg dry
Launch date (UTC)
2025-04-14 (3 months ago)
Launch vehicle
FALCON 9
Launch site
Air Force Eastern Test Range (AFETR)
Object type
Payload
Rocket body
Debris
Shape & HBR
Box + 1 Pan, 29 m
Radar Cross Section
41.120 m², Large (>1 m²)

Expand to show TLE details & history

TLE from 7 hours ago
0 STARLINK-33723
1 63593U 25076AA  25186.66899169  .00026280  00000-0  96029-3 0  9999
2 63593  42.9999 276.5661 0003143 250.8235 109.2276 15.27605042 13811
Epoch: 2025-07-05T16:03Z
TLE epoch observation values (Epoch: 2025-07-05T16:03:20.882Z)
Latitude
-0.00004°
Longitude
111.82533°
Altitude
483.46 km
Speed
7.625 km/s
True Right ascension
18h 26m 15s
True Declination
0° 00' 00"
Sunlit
Object was in full shadow at epoch
Visualization orbit readout
Latitude
1.3498°
Longitude
-71.27492°
Altitude
481.972 km
Speed
7.627 km/s
Apparent Right ascension
03h 29m 47s
Apparent Declination
-28° 48' 52"
Sunlit
Object is in daylight
Visualization observer readout
Local Sidereal Time
11:02:48
Azimuth
259.601° W
Elevation
-35.068°
Doppler factor
1
Orbital elements
Apogee altitude
487.076 km
Perigee altitude
482.762 km
Semi-major axis
6,863.056 km
Eccentricity
0.00031
Inclination
42.9999°
RAAN
276.5661°
Arg. of periapsis
250.8235°
True anomaly
Unknown
Mean anomaly
109.2276°
Eccentric anomaly
Unknown
Mean motion
3.81739 °/min
Orbital period
94.31 mins
BSTAR
0.00096029
Loading maneuver chart data...
Loading SW <> Apogee altitude chart data...
Loading historical data...
Loading historical data...
Loading historical data...
Loading historical data...
Loading historical data...
Loading historical data...
Loading historical data...

STARLINK-33723 Visibility forecast

Observer location: undefined°, undefined°

Span
Click to sort rows by Start time (UTC) header in descending order
Start Az.
Max El. time (UTC)
Max El. Az.
Max El.
End time (UTC)
End Az.
7 mins2025-07-06 09:31:30.021Z227.025° WSW2025-07-06 09:34:30.021Z179.03° S34.895°2025-07-06 09:38:30.021Z79.058° E
6 mins2025-07-06 11:11:30.021Z273.946° WNW2025-07-06 11:13:30.021Z316.618° NNW39.588°2025-07-06 11:17:30.021Z70.964° E
6 mins2025-07-06 12:50:30.021Z292.565° NW2025-07-06 12:53:30.021Z35.909° NE38.878°2025-07-06 12:56:30.021Z86.966° E
6 mins2025-07-06 14:29:30.021Z278.927° WNW2025-07-06 14:32:30.021Z177.459° S38.269°2025-07-06 14:35:30.021Z127.899° SE
|